Location: Laura�t
(43.9341°N, 0.2497°E)
Time: 21:57:33
(UTC+00:00)

Daily predictions for brighter satellites

Satellite Brightness Start Highest point End
(mag) Time Altitude Azimuth Time Altitude Azimuth Time Altitude Azimuth
Meteor 1-20 Rocket 4.2 18:08:30 10° S 18:13:51 61° E 18:19:16 10° NNE
Cosmos 1302 Rocket 4.1 18:08:54 10° SSW 18:14:05 89° ESE 18:19:20 10° NNE
SL-4 R/B 3.3 18:11:57 10° NW 18:14:53 23° N 18:17:42 10° NE
CSL-04 DEB 4.4 18:15:51 10° NNE 18:19:49 87° ESE 18:23:50 10° SSW
ATLAS CENTAUR R/B 2.1 18:19:42 10° S 18:22:42 25° ESE 18:25:44 10° ENE
FALCON 9 DEB 4.5 18:20:10 10° NW 18:23:08 26° NNE 18:26:07 10° E
Cosmos 44 Rocket 3.5 18:22:26 10° NNW 18:27:39 61° NE 18:32:46 10° SE
Okean-O 2.7 18:23:21 10° SSE 18:27:40 55° ENE 18:32:00 10° N
ERS-2 2.6 18:25:38 10° NNE 18:29:04 38° E 18:32:29 10° S
CSL-04 Rocket 4.2 18:24:01 10° SE 18:29:07 40° ENE 18:34:13 10° N
Cosmos 2084 Rocket 3.9 18:25:46 10° NNW 18:29:57 45° NE 18:34:15 10° ESE
Cosmos 1844 Rocket 3.4 18:25:00 10° N 18:30:01 33° NE 18:35:01 10° ESE
Cosmos 1666 4.3 18:30:55 10° ESE 18:33:02 15° E 18:35:11 10° NE
Cosmos 1271 Rocket 3.2 18:31:03 10° NNW 18:34:45 61° W 18:38:27 10° S
HJ-1C 3.8 18:32:28 10° SE 18:35:36 40° ENE 18:38:44 10° N
Cosmos 1503 Rocket 4.3 18:31:50 10° N 18:36:47 43° ENE 18:41:42 10° SE
H-2A R/B 4.3 18:34:22 10° N 18:37:49 27° WNW 18:41:16 10° SW
PSLV R/B 3.8 18:36:07 10° NNE 18:40:13 69° ESE 18:44:15 10° S
Cosmos 1470 Rocket 3.7 18:36:26 10° S 18:40:48 56° E 18:45:11 10° NNE
Cosmos 1844 4.4 18:36:34 10° N 18:41:50 35° NE 18:46:58 10° ESE
Cosmos 2360 Rocket 2.4 18:37:44 10° S 18:43:07 47° ESE 18:48:32 10° NE
CZ-4B R/B 3.0 18:41:18 10° N 18:44:07 35° WNW 18:46:58 10° SW
Cosmos 1602 3.8 18:40:35 10° S 18:44:28 83° W 18:48:24 10° N
Ariane Rocket 4.4 18:42:04 13° E 18:44:48 19° ENE 18:48:19 10° NNE
Cosmos 2278 Rocket 4.1 18:44:40 10° NNE 18:46:33 11° NE 18:48:25 10° ENE
Meteor 1-19 Rocket 4.3 18:43:57 10° N 18:49:56 81° E 18:55:42 10° SSE
Cosmos 1500 3.2 18:47:55 10° S 18:51:32 52° E 18:55:11 10° NNE
Cosmos 2333 Rocket 3.1 18:48:56 10° SSE 18:53:26 25° ESE 18:57:58 10° NE
Meteor 2-4 Rocket 3.9 18:48:45 10° N 18:54:28 53° ENE 19:00:15 10° SSE
Cosmos 1703 Rocket 4.1 18:50:36 10° N 18:54:40 35° ENE 18:58:40 10° SE
DMSP B5D1-3 4.5 18:50:11 10° NNE 18:55:22 79° ESE 19:00:32 10° S
SL-08 RB Rocket 3.7 18:51:50 10° SSE 18:56:14 57° ENE 19:00:43 10° N
Meteor 2-12 Rocket 4.4 18:50:53 10° S 18:56:54 74° E 19:03:00 10° NNE
Cosmos 1689 Rocket 2.0 18:54:41 10° N 18:57:34 79° WNW 19:00:26 10° SSW
Cosmos 1933 Rocket 3.5 18:57:26 10° S 19:01:43 62° E 19:06:03 10° NNE
BREEZE-M DEB (TANK) 3.9 19:01:41 10° SSW 19:03:36 22° SE 19:03:36 22° SE
Aureole 2 Rocket 1.5 19:02:46 10° NNW 19:05:18 84° WSW 19:06:52 20° SSE
Cosmos 1862 Rocket 4.2 19:02:21 10° NNW 19:06:47 59° W 19:11:10 10° S
Resurs 01 Rocket 3.7 19:12:40 12° NE 19:12:40 12° NE 19:13:33 10° NNE
Cosmos 2242 Rocket 3.5 19:08:19 10° N 19:12:48 63° E 19:17:13 10° SSE
Cosmos 2322 Rocket 2.8 19:07:33 10° SW 19:13:05 59° WNW 19:18:39 10° NNE
Lacrosse 4 Rocket 2.6 19:11:33 10° SSE 19:14:29 25° SE 19:14:29 25° SE
Abrixas rocket 3.0 19:13:39 10° WNW 19:15:51 26° N 19:16:07 26° N
Helios 1A Rocket 3.3 19:14:37 10° S 19:18:38 66° WSW 19:22:41 10° NNW
SME Rocket 4.3 19:11:56 10° NNE 19:19:21 45° E 19:24:18 10° SSE
YAOGAN 1 4.0 19:15:25 10° SSW 19:19:28 39° W 19:23:32 10° NNW
COSMOS 2428 3.3 19:18:27 10° SSE 19:23:23 32° ESE 19:24:51 28° ENE
SJ-6B 3.2 19:22:30 36° ESE 19:23:31 44° ENE 19:27:23 10° N
GP-B 3.1 19:23:01 10° S 19:27:27 82° W 19:31:55 10° N
ASTEX 1 3.7 19:23:47 10° NNE 19:28:24 41° E 19:30:11 29° SE
Cosmos 2219 Rocket 2.4 19:25:03 10° S 19:30:16 43° ESE 19:35:32 10° NE
Meteor 1-11 Rocket 3.9 19:25:16 10° SSE 19:30:44 48° E 19:36:07 10° NNE
MetOp-A 4.0 19:27:08 10° SSE 19:32:28 73° ENE 19:37:49 10° N
OBJECT-B 2.4 19:36:26 23° NNE 19:36:26 23° NNE 19:37:55 10° N
ARGOS 4.3 19:31:36 10° S 19:36:47 45° W 19:42:00 10° NNW
SL-16 R/B 3.9 19:32:56 10° WSW 19:37:59 32° NW 19:43:03 10° N
Resurs 1-3 4.4 19:38:47 34° NE 19:38:47 34° NE 19:42:04 10° N
SJ 16-02 3.1 19:37:32 10° N 19:39:34 19° NNE 19:39:34 19° NNE
SeaSat 1 3.1 19:37:03 10° NNE 19:41:52 55° WNW 19:46:40 10° SW
Okean 1-7 3.1 19:37:35 10° NNW 19:41:58 76° W 19:45:45 13° S
CZ-4 R/B 4.4 19:40:35 10° SW 19:43:04 16° W 19:45:34 10° NW
Cosmos 1066 Rocket 4.4 19:38:36 10° N 19:44:12 52° ENE 19:45:41 42° ESE
Meteor 1-13 Rocket 4.2 19:38:41 10° N 19:44:39 73° ENE 19:48:31 22° SSE
USA 234 3.1 19:39:53 18° NE 19:44:58 82° SE 19:51:31 10° SW
H-2A R/B 4.4 19:43:00 10° SSW 19:47:30 26° W 19:52:01 10° NW
IRS-1A Rocket 4.1 19:46:43 33° SSE 19:49:20 70° ENE 19:54:53 10° N
CZ-2C R/B 3.5 19:44:19 10° N 19:49:37 51° WNW 19:54:46 10° SW
Cosmos 2322 3.6 19:44:29 10° SSW 19:50:12 79° ESE 19:55:57 10° NNE
BREEZE-M DEB (TANK) 3.2 19:48:06 10° WNW 19:50:45 40° NNE 19:51:10 39° NNE
USA 186 4.5 19:56:42 10° NNW 19:56:42 10° NNW 19:56:44 10° NNW
SL-4 R/B 2.9 19:51:44 10° NW 19:54:13 33° NNW 19:54:13 33° NNW
DMSP B5D2-2 4.4 19:50:18 10° N 19:55:29 67° WNW 20:00:38 10° SSW
Cosmos 1869 Rocket 3.5 19:51:39 10° S 19:56:00 83° W 20:00:25 10° N
SL-8 Rocket 4.1 19:52:09 10° SSW 19:58:24 77° W 20:04:38 10° N
Gbstr 26 Del rocket 4.5 19:55:25 10° WNW 19:59:50 35° N 20:00:59 32° NE
FALCON 9 DEB 4.2 19:56:55 10° WNW 19:59:26 44° WNW 19:59:26 44° WNW
ATLAS CENTAUR R/B 3.0 19:58:18 10° WSW 20:01:28 28° NW 20:03:10 19° N
Cosmos 1666 4.2 20:04:49 10° SW 20:08:15 35° WNW 20:11:44 10° N
Cosmos 2366 rocket 4.2 20:07:09 10° SSW 20:13:27 74° W 20:19:49 10° N
Cosmos 1844 Rocket 3.9 20:08:49 10° NW 20:13:57 39° WSW 20:17:54 16° SSW
SL-08 R/B 4.4 20:11:58 39° SSE 20:14:27 72° E 20:20:55 10° NNE
SPOT 3 Rocket 4.1 20:18:37 46° NNE 20:18:37 46° NNE 20:22:28 10° N
Cosmos 1777 Rocket 4.2 20:12:12 10° NNW 20:17:25 66° WSW 20:18:17 56° SSW
Okean 3 4.2 20:15:57 10° NNW 20:19:31 52° WNW 20:19:31 52° WNW
Ariane Rocket 3.4 20:22:15 50° SSW 20:23:17 61° WSW 20:28:21 10° NNW
Cosmos 2360 Rocket 4.0 20:22:25 10° WSW 20:27:18 29° NW 20:32:14 10° N
Cosmos 2278 Rocket 2.9 20:26:24 10° NNW 20:30:28 42° NNE 20:30:28 42° NNE
Cosmos 1727 Rocket 4.1 20:30:35 10° NNW 20:36:44 71° W 20:37:44 60° SSW
Cosmos 2333 Rocket 2.9 20:31:48 10° SW 20:37:19 52° WNW 20:42:55 10° NNE
Meteor 2-20 4.4 20:31:57 10° N 20:38:04 78° W 20:38:13 77° WSW
Resurs 01 Rocket 3.8 20:50:14 22° NNW 20:50:14 22° NNW 20:51:48 10° NNW
Cosmos 1943 Rocket 4.4 20:47:08 10° N 20:48:24 14° NNE 20:48:24 14° NNE
Lacrosse 4 Rocket 3.9 20:49:39 10° WSW 20:50:57 18° WSW 20:50:57 18° WSW
COSMOS 2428 3.8 21:02:09 10° SW 21:14:00 - NNE 21:07:13 41° WNW
Cosmos 2219 Rocket 3.8 21:09:24 10° WSW 21:14:20 31° NW 21:19:20 10° N
SJ 16-02 4.1 21:15:41 10° NW 21:16:34 15° NW 21:16:34 15° NW
USA 234 4.2 21:27:15 41° NNW 21:27:39 41° NNW 21:33:40 10° W
